User: anonymous
Location: Unspecified
(0.0000°N, 0.0000°E)
Time: 13:51:50
(UTC+02:00)
Language:

Cosmos 1733 Rocket - Orbit

View from above orbital plane
View from above orbital plane
View from above satellite
View from above satellite

Ground track
Ground track

The orbit data is extracted from the following two-line orbital elements,

1 16612U 86018B   14213.09323714  .00000376  00000-0  42648-4 0  9713
2 16612 082.5162 202.3017 0018108 026.6405 040.5248 14.83592941435571
Epoch (UTC): 01 August 2014 02:14:15
Eccentricity: 0.0018108
inclination: 82.5162°
perigee height: 605 km
apogee height: 630 km
right ascension of ascending node: 202.3017°
argument of perigee: 26.6405°
revolutions per day: 14.83592941
mean anomaly at epoch: 40.5248°
orbit number at epoch: 43557

The dashed part of the orbit path shows where the satellite is in the earth's shadow,  

DLR